Time,TemperatureF,DewpointF,PressureIn,WindDirection,WindDirectionDegrees,WindSpeedMPH,WindSpeedGustMPH,Humidity,HourlyPrecipIn,Conditions,Clouds,dailyrainin,SolarRadiationWatts/m^2,SoftwareType,DateUTC
2013-02-28 00:03:00,40.9,29.3,30.26,NW,325,19.6,19.6,63,0.00,CLR,,0.00,1.0,WeatherDisplay:10.37,2013-02-28 06:03:00,
2013-02-28 00:09:00,40.7,29.1,30.26,NNW,333,13.8,13.8,63,0.00,CLR,,0.00,1.0,WeatherDisplay:10.37,2013-02-28 06:09:00,
2013-02-28 00:14:00,40.5,29.3,30.26,NNW,330,16.8,16.8,64,0.00,CLR,,0.00,1.0,WeatherDisplay:10.37,2013-02-28 06:14:00,
2013-02-28 00:19:00,40.5,29.3,30.26,NW,312,17.3,17.3,64,0.00,CLR,,0.00,1.0,WeatherDisplay:10.37,2013-02-28 06:19:00,
2013-02-28 00:25:00,40.4,29.2,30.26,North,354,17.3,17.3,64,0.00,CLR,,0.00,1.0,WeatherDisplay:10.37,2013-02-28 06:25:00,
2013-02-28 00:30:00,40.4,29.2,30.26,NNW,327,15.0,22.0,64,0.00,CLR,,0.00,0.0,WeatherDisplay:10.37,2013-02-28 06:30:00,
2013-02-28 00:35:00,40.3,29.1,30.26,NW,323,14.0,18.0,64,0.00,CLR,,0.00,0.0,WeatherDisplay:10.37,2013-02-28 06:35:00,
2013-02-28 00:40:00,40.2,29.0,30.26,NW,321,12.0,21.0,64,0.00,CLR,,0.00,0.0,WeatherDisplay:10.37,2013-02-28 06:40:00,
2013-02-28 00:45:00,40.0,29.2,30.26,NNW,331,20.7,20.7,65,0.00,CLR,,0.00,1.0,WeatherDisplay:10.37,2013-02-28 06:45:00,
2013-02-28 00:50:00,40.0,29.2,30.26,NNW,334,17.3,17.3,65,0.00,CLR,,0.00,1.0,WeatherDisplay:10.37,2013-02-28 06:50:00,
2013-02-28 00:55:00,39.9,29.1,30.26,NW,320,16.1,16.1,65,0.00,CLR,,0.00,1.0,WeatherDisplay:10.37,2013-02-28 06:55:00,
2013-02-28 01:01:00,39.6,29.2,30.26,NW,316,16.1,16.1,66,0.00,CLR,,0.00,1.0,WeatherDisplay:10.37,2013-02-28 07:01:00,
2013-02-28 01:06:00,39.5,29.1,30.27,NNW,328,12.7,12.7,66,0.00,CLR,,0.00,1.0,WeatherDisplay:10.37,2013-02-28 07:06:00,
2013-02-28 01:11:00,39.4,29.3,30.27,NNW,327,18.4,18.4,67,0.00,CLR,,0.00,1.0,WeatherDisplay:10.37,2013-02-28 07:11:00,
2013-02-28 01:16:00,39.2,29.2,30.27,NNW,327,10.4,10.4,67,0.00,CLR,,0.00,1.0,WeatherDisplay:10.37,2013-02-28 07:16:00,
2013-02-28 01:21:00,39.0,29.0,30.27,NW,321,12.6,12.6,67,0.00,CLR,,0.00,1.0,WeatherDisplay:10.37,2013-02-28 07:21:00,
2013-02-28 01:27:00,39.0,29.0,30.27,NW,323,17.3,17.3,67,0.00,CLR,,0.00,0.0,WeatherDisplay:10.37,2013-02-28 07:27:00,
2013-02-28 01:32:00,39.1,29.1,30.26,NNW,327,12.7,12.7,67,0.00,CLR,,0.00,1.0,WeatherDisplay:10.37,2013-02-28 07:32:00,
2013-02-28 01:37:00,38.9,28.9,30.26,NNW,343,16.1,16.1,67,0.00,CLR,,0.00,1.0,WeatherDisplay:10.37,2013-02-28 07:37:00,
2013-02-28 01:42:00,38.9,28.9,30.27,NW,317,12.3,12.8,67,0.00,CLR,,0.00,1.0,WeatherDisplay:10.37,2013-02-28 07:42:00,
2013-02-28 01:48:00,38.8,29.1,30.27,NW,315,15.0,15.0,68,0.00,CLR,,0.00,1.0,WeatherDisplay:10.37,2013-02-28 07:48:00,
2013-02-28 01:53:00,38.7,29.0,30.27,WNW,297,13.8,13.8,68,0.00,CLR,,0.00,1.0,WeatherDisplay:10.37,2013-02-28 07:53:00,
2013-02-28 01:58:00,38.6,28.9,30.27,NW,308,11.5,11.5,68,0.00,CLR,,0.00,1.0,WeatherDisplay:10.37,2013-02-28 07:58:00,
2013-02-28 02:03:00,38.6,28.9,30.27,WNW,290,15.0,15.0,68,0.00,CLR,,0.00,1.0,WeatherDisplay:10.37,2013-02-28 08:03:00,
2013-02-28 02:08:00,38.6,28.9,30.27,NW,314,16.1,16.1,68,0.00,CLR,,0.00,1.0,WeatherDisplay:10.37,2013-02-28 08:08:00,
2013-02-28 02:14:00,38.5,28.9,30.27,NNW,331,13.8,13.8,68,0.00,CLR,,0.00,1.0,WeatherDisplay:10.37,2013-02-28 08:14:00,
2013-02-28 02:19:00,38.5,28.9,30.27,NW,322,13.8,13.8,68,0.00,CLR,,0.00,1.0,WeatherDisplay:10.37,2013-02-28 08:19:00,
2013-02-28 02:24:00,38.3,29.0,30.27,NNW,331,15.0,15.0,69,0.00,CLR,,0.00,1.0,WeatherDisplay:10.37,2013-02-28 08:24:00,
2013-02-28 02:29:00,38.3,29.0,30.27,NW,318,15.0,15.0,69,0.00,CLR,,0.00,2.0,WeatherDisplay:10.37,2013-02-28 08:29:00,
2013-02-28 02:34:00,38.2,29.3,30.27,NW,318,12.7,12.7,70,0.00,CLR,,0.00,1.0,WeatherDisplay:10.37,2013-02-28 08:34:00,
2013-02-28 02:40:00,38.0,29.1,30.27,NW,313,11.5,11.5,70,0.00,CLR,,0.00,1.0,WeatherDisplay:10.37,2013-02-28 08:40:00,
2013-02-28 02:45:00,38.0,29.4,30.27,NW,315,10.0,15.0,71,0.00,CLR,,0.00,0.0,WeatherDisplay:10.37,2013-02-28 08:45:00,
2013-02-28 02:50:00,38.0,29.4,30.27,NW,316,10.0,15.0,71,0.00,CLR,,0.00,0.0,WeatherDisplay:10.37,2013-02-28 08:50:00,
2013-02-28 02:55:00,38.1,29.5,30.27,NW,314,10.0,18.0,71,0.00,CLR,,0.00,0.0,WeatherDisplay:10.37,2013-02-28 08:55:00,
2013-02-28 03:00:00,37.9,29.4,30.27,NW,314,10.0,15.0,71,0.00,CLR,,0.00,0.0,WeatherDisplay:10.37,2013-02-28 09:00:00,
2013-02-28 03:05:00,37.9,29.7,30.27,NW,317,12.0,17.0,72,0.00,CLR,,0.00,0.0,WeatherDisplay:10.37,2013-02-28 09:05:00,
2013-02-28 03:10:00,37.6,29.4,30.27,NW,318,9.0,16.0,72,0.00,CLR,,0.00,0.0,WeatherDisplay:10.37,2013-02-28 09:10:00,
2013-02-28 03:15:00,37.3,29.4,30.26,NW,317,9.0,13.0,73,0.00,CLR,,0.00,0.0,WeatherDisplay:10.37,2013-02-28 09:15:00,
2013-02-28 03:20:00,37.2,29.6,30.26,NW,318,10.0,15.0,74,0.00,CLR,,0.00,0.0,WeatherDisplay:10.37,2013-02-28 09:20:00,
2013-02-28 03:25:00,37.1,29.6,30.26,NW,321,10.0,16.0,74,0.00,CLR,,0.00,0.0,WeatherDisplay:10.37,2013-02-28 09:25:00,
2013-02-28 03:30:00,37.2,30.0,30.26,NW,322,13.0,17.0,75,0.00,CLR,,0.00,0.0,WeatherDisplay:10.37,2013-02-28 09:30:00,
2013-02-28 03:35:00,37.2,29.6,30.26,NW,321,14.0,18.0,74,0.00,CLR,,0.00,0.0,WeatherDisplay:10.37,2013-02-28 09:35:00,
2013-02-28 03:40:00,37.2,29.7,30.26,NW,314,18.4,18.4,74,0.00,CLR,,0.00,1.0,WeatherDisplay:10.37,2013-02-28 09:40:00,
2013-02-28 03:45:00,37.3,29.8,30.26,NW,325,15.0,15.0,74,0.00,CLR,,0.00,1.0,WeatherDisplay:10.37,2013-02-28 09:45:00,
2013-02-28 03:51:00,37.3,30.1,30.26,NNW,328,12.7,15.5,75,0.00,CLR,,0.00,1.0,WeatherDisplay:10.37,2013-02-28 09:51:00,
2013-02-28 03:56:00,37.3,30.1,30.26,WNW,299,13.8,13.8,75,0.00,CLR,,0.00,1.0,WeatherDisplay:10.37,2013-02-28 09:56:00,
2013-02-28 04:01:00,37.3,30.4,30.26,NW,320,16.1,16.1,76,0.00,CLR,,0.00,2.0,WeatherDisplay:10.37,2013-02-28 10:01:00,
2013-02-28 04:06:00,37.3,30.4,30.27,NW,319,12.7,12.7,76,0.00,CLR,,0.00,1.0,WeatherDisplay:10.37,2013-02-28 10:06:00,
2013-02-28 04:12:00,37.2,30.7,30.27,NW,317,12.7,12.7,77,0.00,CLR,,0.00,1.0,WeatherDisplay:10.37,2013-02-28 10:12:00,
2013-02-28 04:17:00,37.2,30.7,30.27,NNW,331,11.5,11.5,77,0.00,CLR,,0.00,1.0,WeatherDisplay:10.37,2013-02-28 10:17:00,
2013-02-28 04:22:00,37.1,30.9,30.27,NW,318,15.0,15.0,78,0.00,CLR,,0.00,1.0,WeatherDisplay:10.37,2013-02-28 10:22:00,
2013-02-28 04:27:00,37.2,31.0,30.27,NW,320,12.7,12.7,78,0.00,CLR,,0.00,1.0,WeatherDisplay:10.37,2013-02-28 10:27:00,
2013-02-28 04:33:00,37.1,31.2,30.27,WNW,296,13.8,13.8,79,0.00,CLR,,0.00,1.0,WeatherDisplay:10.37,2013-02-28 10:33:00,
2013-02-28 04:38:00,37.2,31.3,30.27,WNW,294,16.1,16.1,79,0.00,CLR,,0.00,1.0,WeatherDisplay:10.37,2013-02-28 10:38:00,
2013-02-28 04:43:00,37.1,31.2,30.27,NW,323,15.0,15.0,79,0.00,CLR,,0.00,1.0,WeatherDisplay:10.37,2013-02-28 10:43:00,
2013-02-28 04:48:00,37.0,31.1,30.27,WNW,295,13.8,13.8,79,0.00,CLR,,0.00,1.0,WeatherDisplay:10.37,2013-02-28 10:48:00,
2013-02-28 04:53:00,36.9,31.3,30.27,NW,317,13.8,13.8,80,0.00,CLR,,0.00,1.0,WeatherDisplay:10.37,2013-02-28 10:53:00,
2013-02-28 04:59:00,36.9,31.3,30.27,NNW,327,16.1,16.1,80,0.00,CLR,,0.00,1.0,WeatherDisplay:10.37,2013-02-28 10:59:00,
2013-02-28 05:04:00,37.0,31.4,30.27,NW,318,15.0,15.0,80,0.00,CLR,,0.00,1.0,WeatherDisplay:10.37,2013-02-28 11:04:00,
2013-02-28 05:09:00,37.0,31.4,30.27,NW,325,16.1,16.1,80,0.00,CLR,,0.00,1.0,WeatherDisplay:10.37,2013-02-28 11:09:00,
2013-02-28 05:14:00,37.1,31.5,30.27,NW,326,15.0,15.0,80,0.00,CLR,,0.00,1.0,WeatherDisplay:10.37,2013-02-28 11:14:00,
2013-02-28 05:20:00,37.0,31.4,30.27,NW,323,12.0,15.0,80,0.00,CLR,,0.00,0.0,WeatherDisplay:10.37,2013-02-28 11:20:00,
2013-02-28 05:25:00,36.8,31.5,30.27,NW,323,14.0,16.0,81,0.00,CLR,,0.00,0.0,WeatherDisplay:10.37,2013-02-28 11:25:00,
2013-02-28 05:30:00,36.8,31.5,30.27,NW,320,13.0,16.0,81,0.00,CLR,,0.00,0.0,WeatherDisplay:10.37,2013-02-28 11:30:00,
2013-02-28 05:35:00,36.8,31.5,30.27,NW,320,13.0,16.0,81,0.00,CLR,,0.00,0.0,WeatherDisplay:10.37,2013-02-28 11:35:00,
2013-02-28 05:40:00,36.6,31.6,30.28,NW,321,13.8,13.8,82,0.00,CLR,,0.00,1.0,WeatherDisplay:10.37,2013-02-28 11:40:00,
2013-02-28 05:45:00,36.6,31.6,30.27,NW,313,12.7,12.7,82,0.00,CLR,,0.00,2.0,WeatherDisplay:10.37,2013-02-28 11:45:00,
2013-02-28 05:50:00,36.5,31.8,30.28,NW,312,13.8,13.8,83,0.00,CLR,,0.00,1.0,WeatherDisplay:10.37,2013-02-28 11:50:00,
2013-02-28 05:55:00,36.5,31.8,30.28,NW,318,12.7,12.7,83,0.00,CLR,,0.00,2.0,WeatherDisplay:10.37,2013-02-28 11:55:00,
2013-02-28 06:01:00,36.5,31.8,30.28,NW,323,13.8,13.8,83,0.00,CLR,,0.00,1.0,WeatherDisplay:10.37,2013-02-28 12:01:00,
2013-02-28 06:06:00,36.5,31.8,30.28,NW,317,15.0,15.0,83,0.00,CLR,,0.00,1.0,WeatherDisplay:10.37,2013-02-28 12:06:00,
2013-02-28 06:11:00,36.5,31.5,30.28,NW,307,17.3,17.3,82,0.00,CLR,,0.00,1.0,WeatherDisplay:10.37,2013-02-28 12:11:00,
2013-02-28 06:16:00,36.5,31.5,30.28,NW,320,16.1,16.1,82,0.00,CLR,,0.00,1.0,WeatherDisplay:10.37,2013-02-28 12:16:00,
2013-02-28 06:22:00,36.4,31.4,30.28,NW,317,15.0,15.0,82,0.00,CLR,,0.00,1.0,WeatherDisplay:10.37,2013-02-28 12:22:00,
2013-02-28 06:27:00,36.3,31.6,30.28,NW,322,14.1,14.1,83,0.00,OVC,,0.00,1.0,WeatherDisplay:10.37,2013-02-28 12:27:00,
2013-02-28 06:32:00,36.1,31.4,30.28,NW,314,16.1,16.1,83,0.00,OVC,,0.00,2.0,WeatherDisplay:10.37,2013-02-28 12:32:00,
2013-02-28 06:38:00,36.0,31.3,30.28,NW,322,13.8,13.8,83,0.00,OVC,,0.00,2.0,WeatherDisplay:10.37,2013-02-28 12:38:00,
2013-02-28 06:43:00,35.9,31.5,30.28,NW,322,10.4,10.4,84,0.00,OVC,,0.00,3.0,WeatherDisplay:10.37,2013-02-28 12:43:00,
2013-02-28 06:48:00,35.9,31.5,30.28,NW,317,16.1,16.1,84,0.00,OVC,,0.00,5.0,WeatherDisplay:10.37,2013-02-28 12:48:00,
2013-02-28 06:53:00,35.9,31.5,30.28,NNW,327,13.8,13.8,84,0.00,OVC,,0.00,7.0,WeatherDisplay:10.37,2013-02-28 12:53:00,
2013-02-28 06:58:00,35.8,31.4,30.28,NNW,328,12.7,12.7,84,0.00,OVC,,0.00,10.0,WeatherDisplay:10.37,2013-02-28 12:58:00,
2013-02-28 07:03:00,35.9,31.5,30.28,NNW,335,16.1,16.1,84,0.00,OVC,,0.00,38.0,WeatherDisplay:10.37,2013-02-28 13:03:00,
2013-02-28 07:09:00,36.1,31.4,30.28,NNW,335,17.3,17.3,83,0.00,OVC,,0.00,21.0,WeatherDisplay:10.37,2013-02-28 13:09:00,
2013-02-28 07:14:00,36.1,31.4,30.28,NW,322,12.7,12.7,83,0.00,OVC,,0.00,25.0,WeatherDisplay:10.37,2013-02-28 13:14:00,
2013-02-28 07:19:00,36.2,31.5,30.28,NNW,347,13.8,13.8,83,0.00,OVC,,0.00,32.0,WeatherDisplay:10.37,2013-02-28 13:19:00,
2013-02-28 07:24:00,36.3,31.6,30.29,NNW,337,13.8,13.8,83,0.00,OVC,,0.00,35.0,WeatherDisplay:10.37,2013-02-28 13:24:00,
2013-02-28 07:29:00,36.5,31.8,30.29,NNW,336,12.7,12.7,83,0.00,OVC,,0.00,41.0,WeatherDisplay:10.37,2013-02-28 13:29:00,
2013-02-28 07:34:00,36.7,31.7,30.29,NW,324,13.8,13.8,82,0.00,OVC,,0.00,48.0,WeatherDisplay:10.37,2013-02-28 13:34:00,
2013-02-28 07:40:00,36.8,31.9,30.29,NNW,330,13.0,16.0,82,0.00,OVC,,0.00,43.0,WeatherDisplay:10.37,2013-02-28 13:40:00,
2013-02-28 07:45:00,37.1,31.8,30.29,NNW,329,10.0,15.0,81,0.00,OVC,,0.00,44.0,WeatherDisplay:10.37,2013-02-28 13:45:00,
2013-02-28 07:50:00,37.4,31.8,30.29,NNW,328,12.0,17.0,80,0.00,OVC,,0.00,44.0,WeatherDisplay:10.37,2013-02-28 13:50:00,
2013-02-28 07:55:00,37.6,32.0,30.30,NNW,327,13.0,16.0,80,0.00,OVC,,0.00,47.0,WeatherDisplay:10.37,2013-02-28 13:55:00,
2013-02-28 08:00:00,37.9,32.0,30.30,NNW,328,10.0,16.0,79,0.00,OVC,,0.00,47.0,WeatherDisplay:10.37,2013-02-28 14:00:00,
2013-02-28 08:05:00,38.2,31.9,30.30,NW,326,13.0,15.0,78,0.00,OVC,,0.00,64.0,WeatherDisplay:10.37,2013-02-28 14:05:00,
2013-02-28 08:10:00,38.5,32.2,30.30,NW,322,11.5,11.5,78,0.00,OVC,,0.00,52.0,WeatherDisplay:10.37,2013-02-28 14:10:00,
2013-02-28 08:15:00,38.9,32.3,30.31,NNW,331,12.0,16.0,77,0.00,OVC,,0.00,57.0,WeatherDisplay:10.37,2013-02-28 14:15:00,
2013-02-28 08:20:00,39.1,31.8,30.31,NNW,332,14.0,20.0,75,0.00,OVC,,0.00,92.0,WeatherDisplay:10.37,2013-02-28 14:20:00,
2013-02-28 08:25:00,39.5,31.9,30.31,NNW,330,14.0,20.0,74,0.00,OVC,,0.00,120.0,WeatherDisplay:10.37,2013-02-28 14:25:00,
2013-02-28 08:30:00,39.6,31.7,30.31,NW,326,17.0,22.0,73,0.00,OVC,,0.00,427.0,WeatherDisplay:10.37,2013-02-28 14:30:00,
2013-02-28 08:35:00,40.0,32.0,30.31,NW,326,12.0,21.0,73,0.00,OVC,,0.00,444.0,WeatherDisplay:10.37,2013-02-28 14:35:00,
2013-02-28 08:40:00,40.0,31.3,30.31,NNW,331,15.0,21.0,71,0.00,OVC,,0.00,460.0,WeatherDisplay:10.37,2013-02-28 14:40:00,
2013-02-28 08:45:00,40.1,31.4,30.31,NNW,333,14.0,22.0,71,0.00,OVC,,0.00,474.0,WeatherDisplay:10.37,2013-02-28 14:45:00,
2013-02-28 08:50:00,40.5,31.9,30.32,NNW,333,10.0,16.0,71,0.00,OVC,,0.00,491.0,WeatherDisplay:10.37,2013-02-28 14:50:00,
2013-02-28 08:55:00,41.0,32.0,30.32,NNW,329,12.0,14.0,70,0.00,OVC,,0.00,512.0,WeatherDisplay:10.37,2013-02-28 14:55:00,
2013-02-28 09:00:00,41.3,32.3,30.32,NNW,334,7.0,14.0,70,0.00,OVC,,0.00,528.0,WeatherDisplay:10.37,2013-02-28 15:00:00,
2013-02-28 09:05:00,41.8,32.0,30.32,NNW,334,12.0,18.0,68,0.00,OVC,,0.00,545.0,WeatherDisplay:10.37,2013-02-28 15:05:00,
2013-02-28 09:10:00,42.3,32.1,30.32,NNW,333,9.0,13.0,67,0.00,OVC,,0.00,561.0,WeatherDisplay:10.37,2013-02-28 15:10:00,
2013-02-28 09:15:00,42.1,31.5,30.32,NNW,338,10.0,16.0,66,0.00,OVC,,0.00,578.0,WeatherDisplay:10.37,2013-02-28 15:15:00,
2013-02-28 09:20:00,42.4,31.9,30.32,NNW,343,12.0,16.0,66,0.00,OVC,,0.00,589.0,WeatherDisplay:10.37,2013-02-28 15:20:00,
2013-02-28 09:25:00,42.5,31.6,30.33,North,354,10.0,15.0,65,0.00,OVC,,0.00,599.0,WeatherDisplay:10.37,2013-02-28 15:25:00,
2013-02-28 09:30:00,42.6,31.6,30.32,North,356,12.0,15.0,65,0.00,OVC,,0.00,621.0,WeatherDisplay:10.37,2013-02-28 15:30:00,
2013-02-28 09:35:00,43.0,32.1,30.32,NNW,340,10.0,15.0,65,0.00,OVC,,0.00,622.0,WeatherDisplay:10.37,2013-02-28 15:35:00,
2013-02-28 09:40:00,43.0,30.9,30.32,NNW,331,10.0,16.0,62,0.00,OVC,,0.00,629.0,WeatherDisplay:10.37,2013-02-28 15:40:00,
2013-02-28 09:45:00,43.6,31.0,30.32,NW,321,18.4,18.4,61,0.00,OVC,,0.00,642.0,WeatherDisplay:10.37,2013-02-28 15:45:00,
2013-02-28 09:50:00,43.8,31.2,30.32,NNW,345,13.8,13.8,61,0.00,OVC,,0.00,651.0,WeatherDisplay:10.37,2013-02-28 15:50:00,
2013-02-28 09:55:00,44.3,30.9,30.32,NNW,329,13.8,13.8,59,0.00,OVC,,0.00,665.0,WeatherDisplay:10.37,2013-02-28 15:55:00,
2013-02-28 10:00:00,44.6,31.6,30.33,NNW,327,13.8,13.8,60,0.00,OVC,,0.00,676.0,WeatherDisplay:10.37,2013-02-28 16:00:00,
2013-02-28 10:05:00,45.6,31.2,30.33,NNW,338,16.2,16.2,57,0.00,OVC,,0.00,690.0,WeatherDisplay:10.37,2013-02-28 16:05:00,
2013-02-28 10:11:00,45.3,30.5,30.33,NW,325,17.3,17.3,56,0.00,OVC,,0.00,700.0,WeatherDisplay:10.37,2013-02-28 16:11:00,
2013-02-28 10:16:00,45.5,30.7,30.32,NW,322,17.3,17.3,56,0.00,OVC,,0.00,711.0,WeatherDisplay:10.37,2013-02-28 16:16:00,
2013-02-28 10:21:00,45.9,30.6,30.32,NNW,331,16.1,16.1,55,0.00,OVC,,0.00,719.0,WeatherDisplay:10.37,2013-02-28 16:21:00,
2013-02-28 10:26:00,46.0,30.7,30.32,NNW,337,15.0,15.0,55,0.00,OVC,,0.00,730.0,WeatherDisplay:10.37,2013-02-28 16:26:00,
2013-02-28 10:32:00,46.7,31.4,30.32,NW,322,16.1,16.1,55,0.00,OVC,,0.00,736.0,WeatherDisplay:10.37,2013-02-28 16:32:00,
2013-02-28 10:37:00,47.2,30.5,30.32,NW,310,17.1,17.1,52,0.00,OVC,,0.00,750.0,WeatherDisplay:10.37,2013-02-28 16:37:00,
2013-02-28 10:42:00,47.5,29.8,30.32,NW,323,20.7,20.7,50,0.00,OVC,,0.00,758.0,WeatherDisplay:10.37,2013-02-28 16:42:00,
2013-02-28 10:48:00,47.7,30.4,30.32,NNW,342,16.1,16.1,51,0.00,OVC,,0.00,762.0,WeatherDisplay:10.37,2013-02-28 16:48:00,
2013-02-28 10:53:00,48.3,30.5,30.32,NW,324,19.6,19.6,50,0.00,OVC,,0.00,772.0,WeatherDisplay:10.37,2013-02-28 16:53:00,
2013-02-28 10:58:00,47.9,30.1,30.33,NNW,330,13.2,13.2,50,0.00,OVC,,0.00,778.0,WeatherDisplay:10.37,2013-02-28 16:58:00,
2013-02-28 11:03:00,48.1,30.3,30.33,NW,323,19.6,19.6,50,0.00,OVC,,0.00,784.0,WeatherDisplay:10.37,2013-02-28 17:03:00,
2013-02-28 11:09:00,48.3,30.5,30.32,NW,317,18.4,18.4,50,0.00,OVC,,0.00,788.0,WeatherDisplay:10.37,2013-02-28 17:09:00,
2013-02-28 11:14:00,49.4,32.0,30.32,NW,320,12.7,12.7,51,0.00,OVC,,0.00,797.0,WeatherDisplay:10.37,2013-02-28 17:14:00,
2013-02-28 11:19:00,48.9,30.6,30.32,NW,320,20.7,20.7,49,0.00,OVC,,0.00,801.0,WeatherDisplay:10.37,2013-02-28 17:19:00,
2013-02-28 11:24:00,49.4,31.5,30.31,NNW,342,17.3,17.3,50,0.00,OVC,,0.00,805.0,WeatherDisplay:10.37,2013-02-28 17:24:00,
2013-02-28 11:29:00,49.8,30.9,30.32,NNW,333,24.2,24.2,48,0.00,OVC,,0.00,811.0,WeatherDisplay:10.37,2013-02-28 17:29:00,
2013-02-28 11:35:00,50.4,32.4,30.31,NW,309,14.0,21.0,50,0.00,OVC,,0.00,812.0,WeatherDisplay:10.37,2013-02-28 17:35:00,
2013-02-28 11:40:00,49.5,30.6,30.31,NNW,345,15.0,15.0,48,0.00,OVC,,0.00,815.0,WeatherDisplay:10.37,2013-02-28 17:40:00,
2013-02-28 11:45:00,50.8,32.3,30.31,WNW,296,17.3,17.3,49,0.00,OVC,,0.00,817.0,WeatherDisplay:10.37,2013-02-28 17:45:00,
2013-02-28 11:50:00,50.4,32.4,30.31,WSW,250,18.4,18.4,50,0.00,OVC,,0.00,819.0,WeatherDisplay:10.37,2013-02-28 17:50:00,
2013-02-28 11:55:00,50.8,31.8,30.30,NW,314,16.1,16.1,48,0.00,OVC,,0.00,821.0,WeatherDisplay:10.37,2013-02-28 17:55:00,
2013-02-28 12:00:00,50.8,31.8,30.30,NW,319,17.3,17.3,48,0.00,OVC,,0.00,826.0,WeatherDisplay:10.37,2013-02-28 18:00:00,
2013-02-28 12:06:00,51.4,32.9,30.30,NW,311,16.5,16.5,49,0.00,OVC,,0.00,823.0,WeatherDisplay:10.37,2013-02-28 18:06:00,
2013-02-28 12:11:00,52.3,32.1,30.30,WNW,297,19.6,19.6,46,0.00,OVC,,0.00,826.0,WeatherDisplay:10.37,2013-02-28 18:11:00,
2013-02-28 12:16:00,51.8,32.2,30.30,West,279,18.4,18.4,47,0.00,OVC,,0.00,828.0,WeatherDisplay:10.37,2013-02-28 18:16:00,
2013-02-28 12:21:00,52.3,32.1,30.30,NW,318,12.7,12.7,46,0.00,OVC,,0.00,828.0,WeatherDisplay:10.37,2013-02-28 18:21:00,
2013-02-28 12:27:00,53.4,33.1,30.30,NNW,330,20.7,20.7,46,0.00,OVC,,0.00,826.0,WeatherDisplay:10.37,2013-02-28 18:27:00,
2013-02-28 12:32:00,52.8,32.6,30.29,WNW,290,19.6,19.6,46,0.00,OVC,,0.00,826.0,WeatherDisplay:10.37,2013-02-28 18:32:00,
2013-02-28 12:37:00,53.1,32.3,30.29,NNW,327,16.1,16.1,45,0.00,OVC,,0.00,825.0,WeatherDisplay:10.37,2013-02-28 18:37:00,
2013-02-28 12:42:00,53.2,31.8,30.28,NNW,330,16.2,16.2,44,0.00,OVC,,0.00,819.0,WeatherDisplay:10.37,2013-02-28 18:42:00,
2013-02-28 12:48:00,53.3,31.9,30.28,NW,324,20.4,20.4,44,0.00,OVC,,0.00,823.0,WeatherDisplay:10.37,2013-02-28 18:48:00,
2013-02-28 12:53:00,54.4,33.5,30.28,NNW,348,14.1,14.1,45,0.00,OVC,,0.00,820.0,WeatherDisplay:10.37,2013-02-28 18:53:00,
2013-02-28 12:58:00,55.1,32.4,30.28,NW,325,12.7,12.7,42,0.00,CLR,,0.00,810.0,WeatherDisplay:10.37,2013-02-28 18:58:00,
2013-02-28 13:03:00,53.5,31.5,30.27,WNW,293,17.3,17.3,43,0.00,CLR,,0.00,810.0,WeatherDisplay:10.37,2013-02-28 19:03:00,
2013-02-28 13:09:00,53.4,30.9,30.27,NNW,327,15.0,15.0,42,0.00,CLR,,0.00,806.0,WeatherDisplay:10.37,2013-02-28 19:09:00,
2013-02-28 13:14:00,54.3,32.3,30.27,WNW,284,17.3,17.3,43,0.00,CLR,,0.00,803.0,WeatherDisplay:10.37,2013-02-28 19:14:00,
2013-02-28 13:19:00,54.3,30.5,30.26,NNW,328,12.7,12.7,40,0.00,CLR,,0.00,798.0,WeatherDisplay:10.37,2013-02-28 19:19:00,
2013-02-28 13:24:00,54.9,31.0,30.26,NNW,332,16.8,16.8,40,0.00,CLR,,0.00,793.0,WeatherDisplay:10.37,2013-02-28 19:24:00,
2013-02-28 13:29:00,55.0,31.1,30.26,North,349,19.6,19.6,40,0.00,CLR,,0.00,790.0,WeatherDisplay:10.37,2013-02-28 19:29:00,
2013-02-28 13:34:00,54.3,30.5,30.26,NW,324,17.3,17.3,40,0.00,CLR,,0.00,780.0,WeatherDisplay:10.37,2013-02-28 19:34:00,
2013-02-28 13:39:00,55.1,31.8,30.25,NW,321,18.4,18.4,41,0.00,CLR,,0.00,775.0,WeatherDisplay:10.37,2013-02-28 19:39:00,
2013-02-28 13:45:00,55.1,31.2,30.25,NNW,332,15.0,20.0,40,0.00,CLR,,0.00,766.0,WeatherDisplay:10.37,2013-02-28 19:45:00,
2013-02-28 13:50:00,55.8,30.6,30.25,NW,324,17.0,22.0,38,0.00,CLR,,0.00,760.0,WeatherDisplay:10.37,2013-02-28 19:50:00,
2013-02-28 13:55:00,55.6,31.0,30.24,NW,326,13.0,21.0,39,0.00,CLR,,0.00,752.0,WeatherDisplay:10.37,2013-02-28 19:55:00,
2013-02-28 14:00:00,55.9,30.6,30.24,NW,319,20.7,20.7,38,0.00,CLR,,0.00,744.0,WeatherDisplay:10.37,2013-02-28 20:00:00,
2013-02-28 14:05:00,55.0,30.5,30.24,North,352,13.8,13.8,39,0.00,CLR,,0.00,732.0,WeatherDisplay:10.37,2013-02-28 20:05:00,
2013-02-28 14:10:00,55.2,30.0,30.24,North,350,19.6,19.6,38,0.00,CLR,,0.00,724.0,WeatherDisplay:10.37,2013-02-28 20:10:00,
2013-02-28 14:15:00,56.1,31.5,30.24,WNW,289,18.4,18.4,39,0.00,CLR,,0.00,712.0,WeatherDisplay:10.37,2013-02-28 20:15:00,
2013-02-28 14:21:00,57.3,30.5,30.24,NNW,347,16.1,16.1,36,0.00,CLR,,0.00,701.0,WeatherDisplay:10.37,2013-02-28 20:21:00,
2013-02-28 14:26:00,57.4,31.3,30.24,NW,310,20.7,20.7,37,0.00,CLR,,0.00,687.0,WeatherDisplay:10.37,2013-02-28 20:26:00,
2013-02-28 14:31:00,57.6,30.8,30.23,WNW,286,19.6,19.6,36,0.00,CLR,,0.00,680.0,WeatherDisplay:10.37,2013-02-28 20:31:00,
2013-02-28 14:36:00,56.4,29.1,30.23,NW,320,13.8,13.8,35,0.00,CLR,,0.00,666.0,WeatherDisplay:10.37,2013-02-28 20:36:00,
2013-02-28 14:42:00,57.1,29.7,30.23,NNW,339,19.6,19.6,35,0.00,CLR,,0.00,655.0,WeatherDisplay:10.37,2013-02-28 20:42:00,
2013-02-28 14:47:00,57.5,30.7,30.23,NW,321,15.0,15.0,36,0.00,CLR,,0.00,644.0,WeatherDisplay:10.37,2013-02-28 20:47:00,
2013-02-28 14:52:00,57.7,30.2,30.23,WNW,291,21.9,21.9,35,0.00,CLR,,0.00,630.0,WeatherDisplay:10.37,2013-02-28 20:52:00,
2013-02-28 14:57:00,57.6,30.1,30.22,NW,322,19.6,19.6,35,0.00,CLR,,0.00,619.0,WeatherDisplay:10.37,2013-02-28 20:57:00,
2013-02-28 15:02:00,58.2,30.7,30.22,NNW,335,18.4,18.4,35,0.00,CLR,,0.00,605.0,WeatherDisplay:10.37,2013-02-28 21:02:00,
2013-02-28 15:08:00,58.2,32.0,30.22,NW,319,16.1,16.1,37,0.00,CLR,,0.00,594.0,WeatherDisplay:10.37,2013-02-28 21:08:00,
2013-02-28 15:13:00,57.5,30.7,30.22,NW,310,17.3,17.3,36,0.00,CLR,,0.00,580.0,WeatherDisplay:10.37,2013-02-28 21:13:00,
2013-02-28 15:18:00,58.2,32.7,30.22,West,280,20.7,20.7,38,0.00,CLR,,0.00,567.0,WeatherDisplay:10.37,2013-02-28 21:18:00,
2013-02-28 15:24:00,58.3,31.4,30.22,NW,316,21.9,21.9,36,0.00,CLR,,0.00,552.0,WeatherDisplay:10.37,2013-02-28 21:24:00,
2013-02-28 15:29:00,58.6,32.4,30.22,NW,323,19.2,19.2,37,0.00,CLR,,0.00,537.0,WeatherDisplay:10.37,2013-02-28 21:29:00,
2013-02-28 15:34:00,58.5,30.9,30.22,NW,318,19.6,19.6,35,0.00,CLR,,0.00,525.0,WeatherDisplay:10.37,2013-02-28 21:34:00,
2013-02-28 15:39:00,58.2,30.7,30.22,NW,320,23.0,23.0,35,0.00,CLR,,0.00,510.0,WeatherDisplay:10.37,2013-02-28 21:39:00,
2013-02-28 15:45:00,58.1,29.8,30.22,NNW,329,16.0,23.0,34,0.00,CLR,,0.00,496.0,WeatherDisplay:10.37,2013-02-28 21:45:00,
2013-02-28 15:50:00,58.2,30.7,30.21,NNW,334,13.0,20.0,35,0.00,FEW,,0.00,484.0,WeatherDisplay:10.37,2013-02-28 21:50:00,
2013-02-28 15:55:00,58.0,30.5,30.21,NNW,331,18.0,23.0,35,0.00,FEW,,0.00,468.0,WeatherDisplay:10.37,2013-02-28 21:55:00,
2013-02-28 16:00:00,58.5,31.0,30.21,NW,323,12.0,18.0,35,0.00,FEW,,0.00,457.0,WeatherDisplay:10.37,2013-02-28 22:00:00,
2013-02-28 16:05:00,58.5,30.9,30.21,NW,315,16.0,22.0,35,0.00,SCT,,0.00,440.0,WeatherDisplay:10.37,2013-02-28 22:05:00,
2013-02-28 16:10:00,58.1,29.9,30.21,NW,322,17.0,23.0,34,0.00,SCT,,0.00,429.0,WeatherDisplay:10.37,2013-02-28 22:10:00,
2013-02-28 16:15:00,57.6,29.4,30.21,NNW,330,16.0,22.0,34,0.00,SCT,,0.00,412.0,WeatherDisplay:10.37,2013-02-28 22:15:00,
2013-02-28 16:20:00,57.7,30.2,30.21,NNW,327,16.0,22.0,35,0.00,SCT,,0.00,398.0,WeatherDisplay:10.37,2013-02-28 22:20:00,
2013-02-28 16:25:00,57.6,30.2,30.20,NNW,327,15.0,21.0,35,0.00,SCT,,0.00,383.0,WeatherDisplay:10.37,2013-02-28 22:25:00,
2013-02-28 16:30:00,57.5,30.0,30.21,NNW,335,18.0,24.0,35,0.00,SCT,,0.00,366.0,WeatherDisplay:10.37,2013-02-28 22:30:00,
2013-02-28 16:35:00,58.0,30.5,30.21,NNW,330,15.0,26.0,35,0.00,BKN,,0.00,353.0,WeatherDisplay:10.37,2013-02-28 22:35:00,
2013-02-28 16:40:00,57.8,30.3,30.21,NNW,329,12.0,20.0,35,0.00,BKN,,0.00,340.0,WeatherDisplay:10.37,2013-02-28 22:40:00,
2013-02-28 16:45:00,58.1,30.5,30.21,NW,322,15.0,27.0,35,0.00,BKN,,0.00,326.0,WeatherDisplay:10.37,2013-02-28 22:45:00,
2013-02-28 16:50:00,57.9,30.4,30.21,NW,323,14.0,24.0,35,0.00,BKN,,0.00,312.0,WeatherDisplay:10.37,2013-02-28 22:50:00,
2013-02-28 16:55:00,57.6,30.1,30.21,NNW,330,14.0,23.0,35,0.00,BKN,,0.00,297.0,WeatherDisplay:10.37,2013-02-28 22:55:00,
2013-02-28 17:00:00,57.7,30.9,30.20,NNW,329,12.0,20.0,36,0.00,BKN,,0.00,284.0,WeatherDisplay:10.37,2013-02-28 23:00:00,
2013-02-28 17:05:00,57.5,30.7,30.20,NNW,327,14.0,18.0,36,0.00,OVC,,0.00,267.0,WeatherDisplay:10.37,2013-02-28 23:05:00,
2013-02-28 17:10:00,57.6,30.9,30.20,NW,322,13.0,25.0,36,0.00,OVC,,0.00,254.0,WeatherDisplay:10.37,2013-02-28 23:10:00,
2013-02-28 17:15:00,57.7,30.9,30.20,NW,321,13.0,18.0,36,0.00,OVC,,0.00,238.0,WeatherDisplay:10.37,2013-02-28 23:15:00,
2013-02-28 17:20:00,57.5,29.3,30.20,NW,316,16.0,26.0,34,0.00,OVC,,0.00,223.0,WeatherDisplay:10.37,2013-02-28 23:20:00,
2013-02-28 17:25:00,57.3,29.1,30.20,NW,315,21.0,25.0,34,0.00,OVC,,0.00,208.0,WeatherDisplay:10.37,2013-02-28 23:25:00,
2013-02-28 17:30:00,57.1,29.0,30.21,NW,317,25.3,25.3,34,0.00,OVC,,0.00,193.0,WeatherDisplay:10.37,2013-02-28 23:30:00,
2013-02-28 17:35:00,56.9,28.8,30.21,NW,316,16.0,25.0,34,0.00,OVC,,0.00,178.0,WeatherDisplay:10.37,2013-02-28 23:35:00,
2013-02-28 17:40:00,56.8,28.7,30.21,NW,316,20.0,26.0,34,0.00,OVC,,0.00,163.0,WeatherDisplay:10.37,2013-02-28 23:40:00,
2013-02-28 17:45:00,56.7,29.3,30.21,NW,317,18.0,25.0,35,0.00,OVC,,0.00,149.0,WeatherDisplay:10.37,2013-02-28 23:45:00,
2013-02-28 17:50:00,56.5,29.1,30.20,NW,320,15.0,20.0,35,0.00,OVC,,0.00,133.0,WeatherDisplay:10.37,2013-02-28 23:50:00,
2013-02-28 17:55:00,56.2,28.9,30.20,NW,319,15.0,21.0,35,0.00,OVC,,0.00,117.0,WeatherDisplay:10.37,2013-02-28 23:55:00,
2013-02-28 18:00:00,55.9,28.6,30.20,NW,321,12.0,20.0,35,0.00,OVC,,0.00,99.0,WeatherDisplay:10.37,2013-03-01 00:00:00,
2013-02-28 18:05:00,55.7,28.4,30.20,NW,323,14.0,19.0,35,0.00,OVC,,0.00,80.0,WeatherDisplay:10.37,2013-03-01 00:05:00,
2013-02-28 18:10:00,55.2,29.4,30.20,NW,323,9.0,16.0,37,0.00,OVC,,0.00,60.0,WeatherDisplay:10.37,2013-03-01 00:10:00,
2013-02-28 18:15:00,54.9,29.1,30.20,NW,315,15.0,22.0,37,0.00,OVC,,0.00,40.0,WeatherDisplay:10.37,2013-03-01 00:15:00,
2013-02-28 18:20:00,54.7,28.9,30.21,NW,314,13.0,18.0,37,0.00,OVC,,0.00,19.0,WeatherDisplay:10.37,2013-03-01 00:20:00,
2013-02-28 18:25:00,54.3,27.9,30.21,NW,320,9.0,15.0,36,0.00,OVC,,0.00,7.0,WeatherDisplay:10.37,2013-03-01 00:25:00,
2013-02-28 18:30:00,53.9,28.9,30.21,NW,323,10.0,14.0,38,0.00,OVC,,0.00,4.0,WeatherDisplay:10.37,2013-03-01 00:30:00,
2013-02-28 18:35:00,53.7,28.7,30.21,NW,323,10.0,15.0,38,0.00,OVC,,0.00,2.0,WeatherDisplay:10.37,2013-03-01 00:35:00,
2013-02-28 18:40:00,53.6,28.6,30.22,NNW,329,10.0,14.0,38,0.00,OVC,,0.00,2.0,WeatherDisplay:10.37,2013-03-01 00:40:00,
2013-02-28 18:45:00,53.3,28.9,30.22,NNW,333,10.4,10.4,39,0.00,OVC,,0.00,2.0,WeatherDisplay:10.37,2013-03-01 00:45:00,
2013-02-28 18:50:00,53.2,28.2,30.22,NNW,335,10.4,10.4,38,0.00,OVC,,0.00,2.0,WeatherDisplay:10.37,2013-03-01 00:50:00,
2013-02-28 18:55:00,53.0,28.0,30.22,NW,320,9.2,9.2,38,0.00,CLR,,0.00,1.0,WeatherDisplay:10.37,2013-03-01 00:55:00,
2013-02-28 19:00:00,52.7,28.4,30.22,NNW,333,9.2,9.2,39,0.00,CLR,,0.00,2.0,WeatherDisplay:10.37,2013-03-01 01:00:00,
2013-02-28 19:06:00,52.5,28.2,30.22,NNW,328,8.1,8.1,39,0.00,CLR,,0.00,1.0,WeatherDisplay:10.37,2013-03-01 01:06:00,
2013-02-28 19:11:00,52.2,28.0,30.23,North,349,9.2,9.2,39,0.00,CLR,,0.00,1.0,WeatherDisplay:10.37,2013-03-01 01:11:00,
2013-02-28 19:16:00,51.7,27.5,30.23,North,356,10.4,10.4,39,0.00,CLR,,0.00,2.0,WeatherDisplay:10.37,2013-03-01 01:16:00,
2013-02-28 19:22:00,51.5,27.3,30.23,NNW,333,9.2,9.2,39,0.00,CLR,,0.00,1.0,WeatherDisplay:10.37,2013-03-01 01:22:00,
2013-02-28 19:27:00,51.2,27.7,30.23,NNE,19,9.2,9.2,40,0.00,CLR,,0.00,1.0,WeatherDisplay:10.37,2013-03-01 01:27:00,
2013-02-28 19:32:00,50.9,27.4,30.23,North,356,8.1,8.1,40,0.00,CLR,,0.00,1.0,WeatherDisplay:10.37,2013-03-01 01:32:00,
2013-02-28 19:37:00,50.9,27.4,30.23,North,354,11.5,11.5,40,0.00,CLR,,0.00,1.0,WeatherDisplay:10.37,2013-03-01 01:37:00,
2013-02-28 19:43:00,50.9,27.4,30.24,NNW,329,11.5,11.5,40,0.00,CLR,,0.00,1.0,WeatherDisplay:10.37,2013-03-01 01:43:00,
2013-02-28 19:48:00,50.5,27.0,30.24,North,351,9.9,9.9,40,0.00,CLR,,0.00,2.0,WeatherDisplay:10.37,2013-03-01 01:48:00,
2013-02-28 19:53:00,50.5,27.0,30.24,NNW,347,11.5,11.5,40,0.00,CLR,,0.00,1.0,WeatherDisplay:10.37,2013-03-01 01:53:00,
2013-02-28 19:58:00,50.5,27.0,30.24,NNW,336,11.5,13.3,40,0.00,CLR,,0.00,1.0,WeatherDisplay:10.37,2013-03-01 01:58:00,
2013-02-28 20:04:00,50.5,27.0,30.24,NNW,337,11.5,11.5,40,0.00,CLR,,0.00,1.0,WeatherDisplay:10.37,2013-03-01 02:04:00,
2013-02-28 20:09:00,50.3,26.9,30.24,North,351,13.8,13.8,40,0.00,CLR,,0.00,2.0,WeatherDisplay:10.37,2013-03-01 02:09:00,
2013-02-28 20:14:00,50.2,27.4,30.24,NNW,343,11.5,11.5,41,0.00,CLR,,0.00,1.0,WeatherDisplay:10.37,2013-03-01 02:14:00,
2013-02-28 20:20:00,49.9,27.7,30.24,North,6,15.0,15.0,42,0.00,CLR,,0.00,1.0,WeatherDisplay:10.37,2013-03-01 02:20:00,
2013-02-28 20:25:00,49.8,27.6,30.24,NNW,337,9.0,15.0,42,0.00,CLR,,0.00,0.0,WeatherDisplay:10.37,2013-03-01 02:25:00,
2013-02-28 20:30:00,49.7,28.1,30.24,NNW,336,9.0,14.0,43,0.00,CLR,,0.00,0.0,WeatherDisplay:10.37,2013-03-01 02:30:00,
2013-02-28 20:35:00,49.5,27.9,30.24,NNW,334,13.0,16.0,43,0.00,CLR,,0.00,0.0,WeatherDisplay:10.37,2013-03-01 02:35:00,
2013-02-28 20:40:00,49.3,28.3,30.24,NNW,334,9.0,13.0,44,0.00,CLR,,0.00,0.0,WeatherDisplay:10.37,2013-03-01 02:40:00,
2013-02-28 20:45:00,49.0,28.6,30.24,NNW,348,12.7,12.7,45,0.00,CLR,,0.00,1.0,WeatherDisplay:10.37,2013-03-01 02:45:00,
2013-02-28 20:50:00,48.8,28.4,30.24,NNW,331,11.5,11.5,45,0.00,CLR,,0.00,1.0,WeatherDisplay:10.37,2013-03-01 02:50:00,
2013-02-28 20:55:00,48.7,28.3,30.24,NNW,331,10.4,10.4,45,0.00,CLR,,0.00,1.0,WeatherDisplay:10.37,2013-03-01 02:55:00,
2013-02-28 21:00:00,48.4,28.0,30.25,NW,325,10.4,10.4,45,0.00,CLR,,0.00,1.0,WeatherDisplay:10.37,2013-03-01 03:00:00,
2013-02-28 21:06:00,48.4,28.0,30.25,NNW,342,11.5,11.5,45,0.00,CLR,,0.00,1.0,WeatherDisplay:10.37,2013-03-01 03:06:00,
2013-02-28 21:11:00,48.3,27.9,30.25,NNW,328,11.1,11.1,45,0.00,CLR,,0.00,1.0,WeatherDisplay:10.37,2013-03-01 03:11:00,
2013-02-28 21:16:00,48.1,27.7,30.25,NNW,341,15.0,15.0,45,0.00,CLR,,0.00,1.0,WeatherDisplay:10.37,2013-03-01 03:16:00,
2013-02-28 21:22:00,47.9,28.1,30.25,North,351,9.2,9.2,46,0.00,CLR,,0.00,1.0,WeatherDisplay:10.37,2013-03-01 03:22:00,
2013-02-28 21:27:00,47.8,28.0,30.25,NNW,338,12.7,12.7,46,0.00,CLR,,0.00,1.0,WeatherDisplay:10.37,2013-03-01 03:27:00,
2013-02-28 21:32:00,47.8,28.0,30.25,North,351,10.4,10.4,46,0.00,CLR,,0.00,1.0,WeatherDisplay:10.37,2013-03-01 03:32:00,
2013-02-28 21:37:00,47.8,28.0,30.25,NNW,345,13.8,13.8,46,0.00,CLR,,0.00,1.0,WeatherDisplay:10.37,2013-03-01 03:37:00,
2013-02-28 21:43:00,47.6,27.8,30.25,NNW,337,10.8,10.8,46,0.00,CLR,,0.00,1.0,WeatherDisplay:10.37,2013-03-01 03:43:00,
2013-02-28 21:48:00,47.4,27.6,30.26,NNW,332,12.7,12.7,46,0.00,CLR,,0.00,1.0,WeatherDisplay:10.37,2013-03-01 03:48:00,
2013-02-28 21:53:00,47.3,27.5,30.26,North,8,12.7,12.7,46,0.00,CLR,,0.00,2.0,WeatherDisplay:10.37,2013-03-01 03:53:00,
2013-02-28 21:58:00,47.3,27.5,30.26,NNW,342,12.7,12.7,46,0.00,CLR,,0.00,1.0,WeatherDisplay:10.37,2013-03-01 03:58:00,
2013-02-28 22:03:00,47.2,27.5,30.26,NNW,348,11.5,11.5,46,0.00,CLR,,0.00,1.0,WeatherDisplay:10.37,2013-03-01 04:03:00,
2013-02-28 22:08:00,47.1,27.4,30.26,NNW,327,13.8,13.8,46,0.00,CLR,,0.00,1.0,WeatherDisplay:10.37,2013-03-01 04:08:00,
2013-02-28 22:14:00,47.0,27.3,30.26,NW,326,12.7,12.7,46,0.00,CLR,,0.00,1.0,WeatherDisplay:10.37,2013-03-01 04:14:00,
2013-02-28 22:19:00,46.8,27.1,30.26,NNW,330,13.2,13.2,46,0.00,CLR,,0.00,2.0,WeatherDisplay:10.37,2013-03-01 04:19:00,
2013-02-28 22:24:00,46.7,27.5,30.26,NNW,342,11.5,11.5,47,0.00,CLR,,0.00,1.0,WeatherDisplay:10.37,2013-03-01 04:24:00,
2013-02-28 22:29:00,46.7,27.5,30.26,NNW,345,12.7,12.7,47,0.00,CLR,,0.00,1.0,WeatherDisplay:10.37,2013-03-01 04:29:00,
2013-02-28 22:35:00,46.4,27.8,30.27,NNW,340,7.0,11.0,48,0.00,CLR,,0.00,0.0,WeatherDisplay:10.37,2013-03-01 04:35:00,
2013-02-28 22:40:00,46.2,28.1,30.27,NNW,338,9.0,12.0,49,0.00,CLR,,0.00,0.0,WeatherDisplay:10.37,2013-03-01 04:40:00,
2013-02-28 22:45:00,45.8,28.7,30.27,NNW,332,8.0,12.0,51,0.00,CLR,,0.00,0.0,WeatherDisplay:10.37,2013-03-01 04:45:00,
2013-02-28 22:50:00,45.7,28.6,30.27,NNW,333,7.0,13.0,51,0.00,CLR,,0.00,0.0,WeatherDisplay:10.37,2013-03-01 04:50:00,
2013-02-28 22:55:00,45.4,28.4,30.27,NNW,332,10.0,14.0,51,0.00,CLR,,0.00,0.0,WeatherDisplay:10.37,2013-03-01 04:55:00,
2013-02-28 23:00:00,45.2,28.6,30.26,NNW,334,10.4,10.4,52,0.00,CLR,,0.00,0.0,WeatherDisplay:10.37,2013-03-01 05:00:00,
2013-02-28 23:01:00,45.2,28.1,30.26,NNW,337,10.4,10.4,51,0.00,CLR,,0.00,1.0,WeatherDisplay:10.37,2013-03-01 05:01:00,
2013-02-28 23:06:00,45.2,28.1,30.26,NW,321,10.4,10.4,51,0.00,CLR,,0.00,1.0,WeatherDisplay:10.37,2013-03-01 05:06:00,
2013-02-28 23:11:00,45.1,28.0,30.26,NNW,342,11.1,11.1,51,0.00,CLR,,0.00,1.0,WeatherDisplay:10.37,2013-03-01 05:11:00,
2013-02-28 23:16:00,45.0,27.9,30.26,NNW,338,11.5,11.5,51,0.00,CLR,,0.00,1.0,WeatherDisplay:10.37,2013-03-01 05:16:00,
2013-02-28 23:21:00,44.9,27.8,30.26,NNW,336,10.4,10.4,51,0.00,CLR,,0.00,2.0,WeatherDisplay:10.37,2013-03-01 05:21:00,
2013-02-28 23:26:00,44.8,27.8,30.26,NNW,345,10.5,10.5,51,0.00,CLR,,0.00,2.0,WeatherDisplay:10.37,2013-03-01 05:26:00,
2013-02-28 23:32:00,44.7,27.7,30.26,North,356,12.7,12.7,51,0.00,CLR,,0.00,1.0,WeatherDisplay:10.37,2013-03-01 05:32:00,
2013-02-28 23:37:00,44.6,27.6,30.26,NNW,335,11.5,11.5,51,0.00,CLR,,0.00,2.0,WeatherDisplay:10.37,2013-03-01 05:37:00,
2013-02-28 23:42:00,44.4,27.9,30.26,NNW,336,9.2,9.2,52,0.00,CLR,,0.00,1.0,WeatherDisplay:10.37,2013-03-01 05:42:00,
2013-02-28 23:48:00,44.4,27.9,30.26,NNW,334,10.4,10.4,52,0.00,CLR,,0.00,2.0,WeatherDisplay:10.37,2013-03-01 05:48:00,
2013-02-28 23:53:00,44.2,27.7,30.26,NNW,339,10.4,10.4,52,0.00,CLR,,0.00,1.0,WeatherDisplay:10.37,2013-03-01 05:53:00,
2013-02-28 23:58:00,44.0,28.0,30.26,NW,320,8.1,8.1,53,0.00,CLR,,0.00,2.0,WeatherDisplay:10.37,2013-03-01 05:58:00,